Regional Weather Roundup
Issued by NWS

Home | Current Version | Previous Version | Graphics & Text | Print | Product List | Glossary On
Versions: 1 2 3 4 5 6 7 8 9 10 11 12 13 14 15 16 17 18 19 20 21 22 23 24 25 26 27 28 29 30 31 32 33 34 35 36 37 38 39 40 41 42 43 44 45 46 47 48 49 50
000
ASUS43 KDMX 242008
RWRIA

WEATHER ROUNDUP FOR IOWA
NATIONAL WEATHER SERVICE DES MOINES IA
300 PM CDT TUE MAY 24 2016

NOTE: "FAIR" INDICATES FEW OR NO CLOUDS BELOW 12,000 FEET WITH NO
SIGNIFICANT WEATHER AND/OR OBSTRUCTIONS TO VISIBILITY.

* - THESE STATIONS ARE NOT NWS STATIONS...THUS NOT UNDER NWS
QUALITY CONTROL.  THEY ALSO DO NOT REPORT WEATHER SUCH
AS PRECIPITATION OR FOG.

IAZ001>003-012>014-020>022-031>034-043>046-242100-
   NORTHWEST IOWA

CITY           SKY/WX    TMP DP  RH WIND       PRES   REMARKS
CARROLL *      MOSUNNY   77  66  69 SE5       29.90S
CHEROKEE *     SUNNY     79  66  65 CALM      29.89R HX  81
DENISON *      SUNNY     77  64  65 CALM      29.88S
LE MARS *      SUNNY     81  64  57 CALM      29.88S HX  82
ORANGE CITY *  SUNNY     79  64  61 CALM      29.89R HX  81
SHELDON *      SUNNY     79  59  50 CALM      29.88R HX  80
SIOUX CITY     MOSUNNY   82  69  64 E6        29.87S HX  85
SPENCER        MOSUNNY   79  62  56 CALM      29.90R HX  80
STORM LAKE *     N/A     79  63  57 CALM      29.91R HX  80
$$

IAZ055>058-069>071-079>083-090>094-242100-
   SOUTHWEST IOWA

CITY           SKY/WX    TMP DP  RH WIND       PRES   REMARKS
ATLANTIC *     SUNNY     79  57  47 CALM      29.89S HX  80
AUDUBON *        N/A     79  66  65 SE3       29.92S HX  81
CLARINDA *       N/A     81  61  50 MISG      29.93R HX  81
COUNCIL BLFS * SUNNY     79  61  53 SE3       29.90R HX  80
CRESTON *      SUNNY     79  59  50 SE8G15    29.93R HX  80
HARLAN  *        N/A    N/A N/A N/A MISG        N/A
LAMONI         CLOUDY    79  63  57 VRB6      29.91F HX  80
RED OAK *      SUNNY     81  61  50 S8        29.91R HX  81
SHENANDOAH *   SUNNY     81  63  54 CALM      29.91R HX  82
$$

IAZ047>049-059>061-072>074-084-242100-
   CENTRAL IOWA

CITY           SKY/WX    TMP DP  RH WIND       PRES   REMARKS
AMES           PTSUNNY   75  64  68 S5        29.91F
ANKENY *       MOSUNNY   77  66  69 CALM      29.91S
BOONE *        PTSUNNY   75  64  69 VRB5      29.91S
CHARITON *     SUNNY     81  59  47 SE5       29.91F HX  81
DES MOINES     PTSUNNY   81  62  52 CALM      29.91S HX  82
GRINNELL*      MOSUNNY   79  63  57 CALM      29.92R HX  80
KNOXVILLE *    SUNNY     82  59  44 SW9       29.90S HX  82
MARSHALLTOWN   MOSUNNY   77  65  66 SE7       29.91S
NEWTON *       MOSUNNY   79  64  61 VRB6      29.91S HX  81
PERRY *          N/A     77  68  73 E3        29.92R
$$

IAZ004>006-015-016-023>025-035-036-242100-
   NORTH CENTRAL IOWA

CITY           SKY/WX    TMP DP  RH WIND       PRES   REMARKS
ALGONA *       MOSUNNY   81  61  50 SE6       29.90S HX  81
CLARION *      MOSUNNY   77  64  65 S6        29.92S
ESTHERVILLE    CLOUDY    78  60  53 CALM      29.89S
FORT DODGE *   MOSUNNY   77  63  61 S6        29.92S
MASON CITY     MOSUNNY   77  64  64 VRB3      29.93R
FOREST CITY *  SUNNY     75  63  64 SE7       29.93R
WEBSTER CITY * MOSUNNY   77  64  65 CALM      29.90S
IOWA FALLS *     N/A     79  61  53 S6        29.93S HX  80
$$

IAZ007>011-017>019-026>030-037>042-050>054-066-242100-
   NORTHEAST IOWA

CITY           SKY/WX    TMP DP  RH WIND       PRES   REMARKS
CEDAR RAPIDS   PTSUNNY   83  65  54 VRB10     29.91R HX  85
CHARLES CITY * PTSUNNY   79  59  50 SE5       29.92S HX  80
CLINTON *      PTSUNNY   84  61  45 S12G18    29.92S HX  84
DECORAH *      PTSUNNY   81  57  44 CALM      29.91R HX  81
DUBUQUE        PTSUNNY   75  67  76 NW5       29.94F HAZE
MONTICELLO *   PTSUNNY   82  61  47 CALM      29.91S HX  83
OELWEIN *      MOSUNNY   81  59  47 VRB7G14   29.92S HX  81
WATERLOO       PTSUNNY   81  60  48 S7        29.90R HX  82
$$

IAZ064-065-067-068-078-242100-
   EAST CENTRAL IOWA

CITY           SKY/WX    TMP DP  RH WIND       PRES   REMARKS
DAVENPORT      MOSUNNY   88  57  34 S16G26    29.92S HX  87
IOWA CITY      PTSUNNY   83  61  47 SW12      29.92S HX  83
MT. PLEASANT * PTSUNNY   86  64  48 S10G22    29.91F HX  87
MUSCATINE *    SUNNY     86  61  42 S14G22    29.90S HX  86
QUAD CITIES    SUNNY     87  57  35 S8        29.90S HX  86
$$

IAZ062-063-075>077-085>089-095>099-242100-
   SOUTHEAST IOWA

CITY           SKY/WX    TMP DP  RH WIND       PRES   REMARKS
BURLINGTON     MOSUNNY   83  63  50 S12G18    29.92F HX  84
FAIRFIELD *      N/A    N/A N/A N/A MISG        N/A
FORT MADISON * MOSUNNY   82  64  54 S9        29.94S HX  84
KEOKUK *       SUNNY     82  64  54 S10       29.92F HX  84
OSKALOOSA *      N/A     84  59  42 W9G17     29.92R HX  84
OTTUMWA        MOSUNNY   82  65  56 SW10      29.90S HX  84
WASHINGTON *   MOSUNNY   84  64  51 S13       29.92S HX  86
$$

ABBREVIATIONS USED IN REMARKS
   TC - TEMPERATURES IN CELSIUS
  WCI - WIND CHILL INDEX
   HX - HEAT INDEX
  VSB - VISIBILITY
$$





USA.gov is the U.S. government's official web portal to all federal, state and local government web resources and services.